Index of /20260428/WXO-DD/model_rdps/10km/12/038
Name Last modified Size Description
Parent Directory -
20260428T12Z_MSC_RDPS_AbsoluteVorticity_IsbL-0250_RLatLon0.09_PT038H.grib2 2026-04-28 14:50 636K
20260428T12Z_MSC_RDPS_AbsoluteVorticity_IsbL-0500_RLatLon0.09_PT038H.grib2 2026-04-28 14:50 580K
20260428T12Z_MSC_RDPS_AbsoluteVorticity_IsbL-0700_RLatLon0.09_PT038H.grib2 2026-04-28 14:50 626K
20260428T12Z_MSC_RDPS_AbsoluteVorticity_IsbL-0850_RLatLon0.09_PT038H.grib2 2026-04-28 14:50 764K
20260428T12Z_MSC_RDPS_AirTemp_AGL-120m_RLatLon0.09_PT038H.grib2 2026-04-28 14:50 379K
20260428T12Z_MSC_RDPS_AirTemp_AGL-2m_RLatLon0.09_PT038H.grib2 2026-04-28 14:50 614K
20260428T12Z_MSC_RDPS_AirTemp_AGL-40m_RLatLon0.09_PT038H.grib2 2026-04-28 14:50 391K
20260428T12Z_MSC_RDPS_AirTemp_AGL-80m_RLatLon0.09_PT038H.grib2 2026-04-28 14:50 383K
20260428T12Z_MSC_RDPS_AirTemp_IsbL-0001_RLatLon0.09_PT038H.grib2 2026-04-28 14:50 301K
20260428T12Z_MSC_RDPS_AirTemp_IsbL-0005_RLatLon0.09_PT038H.grib2 2026-04-28 14:50 292K
20260428T12Z_MSC_RDPS_AirTemp_IsbL-0010_RLatLon0.09_PT038H.grib2 2026-04-28 14:50 304K
20260428T12Z_MSC_RDPS_AirTemp_IsbL-0020_RLatLon0.09_PT038H.grib2 2026-04-28 14:50 317K
20260428T12Z_MSC_RDPS_AirTemp_IsbL-0030_RLatLon0.09_PT038H.grib2 2026-04-28 14:50 341K
20260428T12Z_MSC_RDPS_AirTemp_IsbL-0050_RLatLon0.09_PT038H.grib2 2026-04-28 14:50 315K
20260428T12Z_MSC_RDPS_AirTemp_IsbL-0100_RLatLon0.09_PT038H.grib2 2026-04-28 14:50 433K
20260428T12Z_MSC_RDPS_AirTemp_IsbL-0150_RLatLon0.09_PT038H.grib2 2026-04-28 14:50 433K
20260428T12Z_MSC_RDPS_AirTemp_IsbL-0175_RLatLon0.09_PT038H.grib2 2026-04-28 14:50 420K
20260428T12Z_MSC_RDPS_AirTemp_IsbL-0200_RLatLon0.09_PT038H.grib2 2026-04-28 14:50 423K
20260428T12Z_MSC_RDPS_AirTemp_IsbL-0225_RLatLon0.09_PT038H.grib2 2026-04-28 14:50 426K
20260428T12Z_MSC_RDPS_AirTemp_IsbL-0250_RLatLon0.09_PT038H.grib2 2026-04-28 14:50 437K
20260428T12Z_MSC_RDPS_AirTemp_IsbL-0275_RLatLon0.09_PT038H.grib2 2026-04-28 14:50 415K
20260428T12Z_MSC_RDPS_AirTemp_IsbL-0300_RLatLon0.09_PT038H.grib2 2026-04-28 14:50 421K
20260428T12Z_MSC_RDPS_AirTemp_IsbL-0350_RLatLon0.09_PT038H.grib2 2026-04-28 14:50 432K
20260428T12Z_MSC_RDPS_AirTemp_IsbL-0400_RLatLon0.09_PT038H.grib2 2026-04-28 14:50 432K
20260428T12Z_MSC_RDPS_AirTemp_IsbL-0450_RLatLon0.09_PT038H.grib2 2026-04-28 14:50 439K
20260428T12Z_MSC_RDPS_AirTemp_IsbL-0500_RLatLon0.09_PT038H.grib2 2026-04-28 14:50 416K
20260428T12Z_MSC_RDPS_AirTemp_IsbL-0550_RLatLon0.09_PT038H.grib2 2026-04-28 14:50 432K
20260428T12Z_MSC_RDPS_AirTemp_IsbL-0600_RLatLon0.09_PT038H.grib2 2026-04-28 14:50 452K
20260428T12Z_MSC_RDPS_AirTemp_IsbL-0650_RLatLon0.09_PT038H.grib2 2026-04-28 14:50 466K
20260428T12Z_MSC_RDPS_AirTemp_IsbL-0700_RLatLon0.09_PT038H.grib2 2026-04-28 14:50 379K
20260428T12Z_MSC_RDPS_AirTemp_IsbL-0750_RLatLon0.09_PT038H.grib2 2026-04-28 14:50 408K
20260428T12Z_MSC_RDPS_AirTemp_IsbL-0800_RLatLon0.09_PT038H.grib2 2026-04-28 14:50 444K
20260428T12Z_MSC_RDPS_AirTemp_IsbL-0850_RLatLon0.09_PT038H.grib2 2026-04-28 14:50 487K
20260428T12Z_MSC_RDPS_AirTemp_IsbL-0875_RLatLon0.09_PT038H.grib2 2026-04-28 14:50 507K
20260428T12Z_MSC_RDPS_AirTemp_IsbL-0900_RLatLon0.09_PT038H.grib2 2026-04-28 14:50 516K
20260428T12Z_MSC_RDPS_AirTemp_IsbL-0925_RLatLon0.09_PT038H.grib2 2026-04-28 14:50 514K
20260428T12Z_MSC_RDPS_AirTemp_IsbL-0950_RLatLon0.09_PT038H.grib2 2026-04-28 14:50 514K
20260428T12Z_MSC_RDPS_AirTemp_IsbL-0970_RLatLon0.09_PT038H.grib2 2026-04-28 14:50 506K
20260428T12Z_MSC_RDPS_AirTemp_IsbL-0985_RLatLon0.09_PT038H.grib2 2026-04-28 14:50 495K
20260428T12Z_MSC_RDPS_AirTemp_IsbL-1000_RLatLon0.09_PT038H.grib2 2026-04-28 14:50 480K
20260428T12Z_MSC_RDPS_AirTemp_IsbL-1015_RLatLon0.09_PT038H.grib2 2026-04-28 14:50 477K
20260428T12Z_MSC_RDPS_Albedo_Sfc_RLatLon0.09_PT038H.grib2 2026-04-28 14:50 163K
20260428T12Z_MSC_RDPS_CAPE_Sfc_RLatLon0.09_PT038H.grib2 2026-04-28 14:50 1.6M
20260428T12Z_MSC_RDPS_CIN_Sfc_RLatLon0.09_PT038H.grib2 2026-04-28 14:50 1.2M
20260428T12Z_MSC_RDPS_CloudWater_EAtm_RLatLon0.09_PT038H.grib2 2026-04-28 14:50 221K
20260428T12Z_MSC_RDPS_ConvectivePrecip-Accum_Sfc_RLatLon0.09_PT038H.grib2 2026-04-28 14:50 1.0M
20260428T12Z_MSC_RDPS_DewPointDepression_AGL-2m_RLatLon0.09_PT038H.grib2 2026-04-28 14:50 398K
20260428T12Z_MSC_RDPS_DewPointDepression_IsbL-0001_RLatLon0.09_PT038H.grib2 2026-04-28 14:50 193
20260428T12Z_MSC_RDPS_DewPointDepression_IsbL-0005_RLatLon0.09_PT038H.grib2 2026-04-28 14:50 193
20260428T12Z_MSC_RDPS_DewPointDepression_IsbL-0010_RLatLon0.09_PT038H.grib2 2026-04-28 14:50 193
20260428T12Z_MSC_RDPS_DewPointDepression_IsbL-0020_RLatLon0.09_PT038H.grib2 2026-04-28 14:50 193
20260428T12Z_MSC_RDPS_DewPointDepression_IsbL-0030_RLatLon0.09_PT038H.grib2 2026-04-28 14:50 193
20260428T12Z_MSC_RDPS_DewPointDepression_IsbL-0050_RLatLon0.09_PT038H.grib2 2026-04-28 14:50 92K
20260428T12Z_MSC_RDPS_DewPointDepression_IsbL-0100_RLatLon0.09_PT038H.grib2 2026-04-28 14:50 133K
20260428T12Z_MSC_RDPS_DewPointDepression_IsbL-0150_RLatLon0.09_PT038H.grib2 2026-04-28 14:50 154K
20260428T12Z_MSC_RDPS_DewPointDepression_IsbL-0175_RLatLon0.09_PT038H.grib2 2026-04-28 14:50 183K
20260428T12Z_MSC_RDPS_DewPointDepression_IsbL-0200_RLatLon0.09_PT038H.grib2 2026-04-28 14:50 223K
20260428T12Z_MSC_RDPS_DewPointDepression_IsbL-0225_RLatLon0.09_PT038H.grib2 2026-04-28 14:50 271K
20260428T12Z_MSC_RDPS_DewPointDepression_IsbL-0250_RLatLon0.09_PT038H.grib2 2026-04-28 14:50 309K
20260428T12Z_MSC_RDPS_DewPointDepression_IsbL-0275_RLatLon0.09_PT038H.grib2 2026-04-28 14:50 315K
20260428T12Z_MSC_RDPS_DewPointDepression_IsbL-0300_RLatLon0.09_PT038H.grib2 2026-04-28 14:50 336K
20260428T12Z_MSC_RDPS_DewPointDepression_IsbL-0350_RLatLon0.09_PT038H.grib2 2026-04-28 14:50 339K
20260428T12Z_MSC_RDPS_DewPointDepression_IsbL-0400_RLatLon0.09_PT038H.grib2 2026-04-28 14:50 344K
20260428T12Z_MSC_RDPS_DewPointDepression_IsbL-0450_RLatLon0.09_PT038H.grib2 2026-04-28 14:50 349K
20260428T12Z_MSC_RDPS_DewPointDepression_IsbL-0500_RLatLon0.09_PT038H.grib2 2026-04-28 14:50 358K
20260428T12Z_MSC_RDPS_DewPointDepression_IsbL-0550_RLatLon0.09_PT038H.grib2 2026-04-28 14:50 373K
20260428T12Z_MSC_RDPS_DewPointDepression_IsbL-0600_RLatLon0.09_PT038H.grib2 2026-04-28 14:50 387K
20260428T12Z_MSC_RDPS_DewPointDepression_IsbL-0650_RLatLon0.09_PT038H.grib2 2026-04-28 14:50 394K
20260428T12Z_MSC_RDPS_DewPointDepression_IsbL-0700_RLatLon0.09_PT038H.grib2 2026-04-28 14:50 400K
20260428T12Z_MSC_RDPS_DewPointDepression_IsbL-0750_RLatLon0.09_PT038H.grib2 2026-04-28 14:50 417K
20260428T12Z_MSC_RDPS_DewPointDepression_IsbL-0800_RLatLon0.09_PT038H.grib2 2026-04-28 14:50 439K
20260428T12Z_MSC_RDPS_DewPointDepression_IsbL-0850_RLatLon0.09_PT038H.grib2 2026-04-28 14:50 462K
20260428T12Z_MSC_RDPS_DewPointDepression_IsbL-0875_RLatLon0.09_PT038H.grib2 2026-04-28 14:50 466K
20260428T12Z_MSC_RDPS_DewPointDepression_IsbL-0900_RLatLon0.09_PT038H.grib2 2026-04-28 14:50 459K
20260428T12Z_MSC_RDPS_DewPointDepression_IsbL-0925_RLatLon0.09_PT038H.grib2 2026-04-28 14:50 446K
20260428T12Z_MSC_RDPS_DewPointDepression_IsbL-0950_RLatLon0.09_PT038H.grib2 2026-04-28 14:50 438K
20260428T12Z_MSC_RDPS_DewPointDepression_IsbL-0970_RLatLon0.09_PT038H.grib2 2026-04-28 14:50 426K
20260428T12Z_MSC_RDPS_DewPointDepression_IsbL-0985_RLatLon0.09_PT038H.grib2 2026-04-28 14:50 419K
20260428T12Z_MSC_RDPS_DewPointDepression_IsbL-1000_RLatLon0.09_PT038H.grib2 2026-04-28 14:50 413K
20260428T12Z_MSC_RDPS_DewPointDepression_IsbL-1015_RLatLon0.09_PT038H.grib2 2026-04-28 14:50 402K
20260428T12Z_MSC_RDPS_DewPoint_AGL-2m_RLatLon0.09_PT038H.grib2 2026-04-28 14:50 302K
20260428T12Z_MSC_RDPS_DownwardLongwaveRadiationFlux-Accum_Sfc_RLatLon0.09_PT038H.grib2 2026-04-28 14:50 375K
20260428T12Z_MSC_RDPS_DownwardShortwaveRadiationFlux-Accum_NTAtm_RLatLon0.09_PT038H.grib2 2026-04-28 14:50 96K
20260428T12Z_MSC_RDPS_DownwardShortwaveRadiationFlux-Accum_Sfc_RLatLon0.09_PT038H.grib2 2026-04-28 14:50 541K
20260428T12Z_MSC_RDPS_FreezingRain-Accum1h_Sfc_RLatLon0.09_PT038H.grib2 2026-04-28 14:50 15K
20260428T12Z_MSC_RDPS_FreezingRain-Accum_Sfc_RLatLon0.09_PT038H.grib2 2026-04-28 14:50 144K
20260428T12Z_MSC_RDPS_GeopotentialHeight_IsbL-0001_RLatLon0.09_PT038H.grib2 2026-04-28 14:50 237K
20260428T12Z_MSC_RDPS_GeopotentialHeight_IsbL-0005_RLatLon0.09_PT038H.grib2 2026-04-28 14:50 335K
20260428T12Z_MSC_RDPS_GeopotentialHeight_IsbL-0010_RLatLon0.09_PT038H.grib2 2026-04-28 14:50 303K
20260428T12Z_MSC_RDPS_GeopotentialHeight_IsbL-0020_RLatLon0.09_PT038H.grib2 2026-04-28 14:50 302K
20260428T12Z_MSC_RDPS_GeopotentialHeight_IsbL-0030_RLatLon0.09_PT038H.grib2 2026-04-28 14:50 303K
20260428T12Z_MSC_RDPS_GeopotentialHeight_IsbL-0050_RLatLon0.09_PT038H.grib2 2026-04-28 14:50 338K
20260428T12Z_MSC_RDPS_GeopotentialHeight_IsbL-0100_RLatLon0.09_PT038H.grib2 2026-04-28 14:50 285K
20260428T12Z_MSC_RDPS_GeopotentialHeight_IsbL-0150_RLatLon0.09_PT038H.grib2 2026-04-28 14:50 231K
20260428T12Z_MSC_RDPS_GeopotentialHeight_IsbL-0175_RLatLon0.09_PT038H.grib2 2026-04-28 14:50 233K
20260428T12Z_MSC_RDPS_GeopotentialHeight_IsbL-0200_RLatLon0.09_PT038H.grib2 2026-04-28 14:50 266K
20260428T12Z_MSC_RDPS_GeopotentialHeight_IsbL-0225_RLatLon0.09_PT038H.grib2 2026-04-28 14:50 267K
20260428T12Z_MSC_RDPS_GeopotentialHeight_IsbL-0250_RLatLon0.09_PT038H.grib2 2026-04-28 14:50 269K
20260428T12Z_MSC_RDPS_GeopotentialHeight_IsbL-0275_RLatLon0.09_PT038H.grib2 2026-04-28 14:50 268K
20260428T12Z_MSC_RDPS_GeopotentialHeight_IsbL-0300_RLatLon0.09_PT038H.grib2 2026-04-28 14:50 237K
20260428T12Z_MSC_RDPS_GeopotentialHeight_IsbL-0350_RLatLon0.09_PT038H.grib2 2026-04-28 14:50 233K
20260428T12Z_MSC_RDPS_GeopotentialHeight_IsbL-0400_RLatLon0.09_PT038H.grib2 2026-04-28 14:50 230K
20260428T12Z_MSC_RDPS_GeopotentialHeight_IsbL-0450_RLatLon0.09_PT038H.grib2 2026-04-28 14:50 298K
20260428T12Z_MSC_RDPS_GeopotentialHeight_IsbL-0500_RLatLon0.09_PT038H.grib2 2026-04-28 14:50 293K
20260428T12Z_MSC_RDPS_GeopotentialHeight_IsbL-0550_RLatLon0.09_PT038H.grib2 2026-04-28 14:50 289K
20260428T12Z_MSC_RDPS_GeopotentialHeight_IsbL-0600_RLatLon0.09_PT038H.grib2 2026-04-28 14:50 285K
20260428T12Z_MSC_RDPS_GeopotentialHeight_IsbL-0650_RLatLon0.09_PT038H.grib2 2026-04-28 14:50 255K
20260428T12Z_MSC_RDPS_GeopotentialHeight_IsbL-0700_RLatLon0.09_PT038H.grib2 2026-04-28 14:50 335K
20260428T12Z_MSC_RDPS_GeopotentialHeight_IsbL-0750_RLatLon0.09_PT038H.grib2 2026-04-28 14:50 336K
20260428T12Z_MSC_RDPS_GeopotentialHeight_IsbL-0800_RLatLon0.09_PT038H.grib2 2026-04-28 14:50 340K
20260428T12Z_MSC_RDPS_GeopotentialHeight_IsbL-0850_RLatLon0.09_PT038H.grib2 2026-04-28 14:50 380K
20260428T12Z_MSC_RDPS_GeopotentialHeight_IsbL-0875_RLatLon0.09_PT038H.grib2 2026-04-28 14:50 384K
20260428T12Z_MSC_RDPS_GeopotentialHeight_IsbL-0900_RLatLon0.09_PT038H.grib2 2026-04-28 14:50 388K
20260428T12Z_MSC_RDPS_GeopotentialHeight_IsbL-0925_RLatLon0.09_PT038H.grib2 2026-04-28 14:50 391K
20260428T12Z_MSC_RDPS_GeopotentialHeight_IsbL-0950_RLatLon0.09_PT038H.grib2 2026-04-28 14:50 394K
20260428T12Z_MSC_RDPS_GeopotentialHeight_IsbL-0970_RLatLon0.09_PT038H.grib2 2026-04-28 14:50 399K
20260428T12Z_MSC_RDPS_GeopotentialHeight_IsbL-0985_RLatLon0.09_PT038H.grib2 2026-04-28 14:50 407K
20260428T12Z_MSC_RDPS_GeopotentialHeight_IsbL-1000_RLatLon0.09_PT038H.grib2 2026-04-28 14:50 418K
20260428T12Z_MSC_RDPS_GeopotentialHeight_IsbL-1015_RLatLon0.09_PT038H.grib2 2026-04-28 14:50 433K
20260428T12Z_MSC_RDPS_Humidex_Sfc_RLatLon0.09_PT038H.grib2 2026-04-28 14:50 2.4M
20260428T12Z_MSC_RDPS_IcePellets-Accum1h_Sfc_RLatLon0.09_PT038H.grib2 2026-04-28 14:50 1.6K
20260428T12Z_MSC_RDPS_IcePellets-Accum_Sfc_RLatLon0.09_PT038H.grib2 2026-04-28 14:50 24K
20260428T12Z_MSC_RDPS_KIndex_Sfc_RLatLon0.09_PT038H.grib2 2026-04-28 14:50 2.5M
20260428T12Z_MSC_RDPS_LatentHeatNetFlux_Sfc_RLatLon0.09_PT038H.grib2 2026-04-28 14:50 408K
20260428T12Z_MSC_RDPS_LiftedIndex-MU-VT_IsbL-0500_RLatLon0.09_PT038H.grib2 2026-04-28 14:50 2.4M
20260428T12Z_MSC_RDPS_NetLongwaveRadiationFlux-Accum_Sfc_RLatLon0.09_PT038H.grib2 2026-04-28 14:50 507K
20260428T12Z_MSC_RDPS_NetShortwaveRadiationFlux-Accum_Sfc_RLatLon0.09_PT038H.grib2 2026-04-28 14:50 543K
20260428T12Z_MSC_RDPS_PlanetaryBoundaryLayerHeight_Sfc_RLatLon0.09_PT038H.grib2 2026-04-28 14:50 1.1M
20260428T12Z_MSC_RDPS_Precip-Accum1h_Sfc_RLatLon0.09_PT038H.grib2 2026-04-28 14:50 1.1M
20260428T12Z_MSC_RDPS_Precip-Accum_Sfc_RLatLon0.09_PT038H.grib2 2026-04-28 14:50 1.9M
20260428T12Z_MSC_RDPS_PrecipRate_Sfc_RLatLon0.09_PT038H.grib2 2026-04-28 14:50 168K
20260428T12Z_MSC_RDPS_PrecipType-Instant_Sfc_RLatLon0.09_PT038H.grib2 2026-04-28 14:50 547K
20260428T12Z_MSC_RDPS_Pressure-Trend3h_Sfc_RLatLon0.09_PT038H.grib2 2026-04-28 14:50 1.2M
20260428T12Z_MSC_RDPS_Pressure_MSL_RLatLon0.09_PT038H.grib2 2026-04-28 14:50 321K
20260428T12Z_MSC_RDPS_Pressure_PVU-1.5_RLatLon0.09_PT038H.grib2 2026-04-28 14:50 2.3M
20260428T12Z_MSC_RDPS_Pressure_PVU-1_RLatLon0.09_PT038H.grib2 2026-04-28 14:50 2.4M
20260428T12Z_MSC_RDPS_Pressure_PVU-2_RLatLon0.09_PT038H.grib2 2026-04-28 14:50 2.4M
20260428T12Z_MSC_RDPS_Pressure_Sfc_RLatLon0.09_PT038H.grib2 2026-04-28 14:50 498K
20260428T12Z_MSC_RDPS_RadiativeTemp_Sfc_RLatLon0.09_PT038H.grib2 2026-04-28 14:50 301K
20260428T12Z_MSC_RDPS_Rain-Accum1h_Sfc_RLatLon0.09_PT038H.grib2 2026-04-28 14:50 560K
20260428T12Z_MSC_RDPS_Rain-Accum_Sfc_RLatLon0.09_PT038H.grib2 2026-04-28 14:50 1.5M
20260428T12Z_MSC_RDPS_RelativeHumidity_AGL-2m_RLatLon0.09_PT038H.grib2 2026-04-28 14:50 1.0M
20260428T12Z_MSC_RDPS_RelativeHumidity_IsbL-0010_RLatLon0.09_PT038H.grib2 2026-04-28 14:50 633K
20260428T12Z_MSC_RDPS_RelativeHumidity_IsbL-0020_RLatLon0.09_PT038H.grib2 2026-04-28 14:50 682K
20260428T12Z_MSC_RDPS_RelativeHumidity_IsbL-0030_RLatLon0.09_PT038H.grib2 2026-04-28 14:50 607K
20260428T12Z_MSC_RDPS_RelativeHumidity_IsbL-0050_RLatLon0.09_PT038H.grib2 2026-04-28 14:50 371K
20260428T12Z_MSC_RDPS_RelativeHumidity_IsbL-0100_RLatLon0.09_PT038H.grib2 2026-04-28 14:50 288K
20260428T12Z_MSC_RDPS_RelativeHumidity_IsbL-0150_RLatLon0.09_PT038H.grib2 2026-04-28 14:50 421K
20260428T12Z_MSC_RDPS_RelativeHumidity_IsbL-0175_RLatLon0.09_PT038H.grib2 2026-04-28 14:50 495K
20260428T12Z_MSC_RDPS_RelativeHumidity_IsbL-0200_RLatLon0.09_PT038H.grib2 2026-04-28 14:50 568K
20260428T12Z_MSC_RDPS_RelativeHumidity_IsbL-0225_RLatLon0.09_PT038H.grib2 2026-04-28 14:50 639K
20260428T12Z_MSC_RDPS_RelativeHumidity_IsbL-0250_RLatLon0.09_PT038H.grib2 2026-04-28 14:50 713K
20260428T12Z_MSC_RDPS_RelativeHumidity_IsbL-0275_RLatLon0.09_PT038H.grib2 2026-04-28 14:50 739K
20260428T12Z_MSC_RDPS_RelativeHumidity_IsbL-0300_RLatLon0.09_PT038H.grib2 2026-04-28 14:50 785K
20260428T12Z_MSC_RDPS_RelativeHumidity_IsbL-0350_RLatLon0.09_PT038H.grib2 2026-04-28 14:50 800K
20260428T12Z_MSC_RDPS_RelativeHumidity_IsbL-0400_RLatLon0.09_PT038H.grib2 2026-04-28 14:50 805K
20260428T12Z_MSC_RDPS_RelativeHumidity_IsbL-0450_RLatLon0.09_PT038H.grib2 2026-04-28 14:50 807K
20260428T12Z_MSC_RDPS_RelativeHumidity_IsbL-0500_RLatLon0.09_PT038H.grib2 2026-04-28 14:50 816K
20260428T12Z_MSC_RDPS_RelativeHumidity_IsbL-0550_RLatLon0.09_PT038H.grib2 2026-04-28 14:50 835K
20260428T12Z_MSC_RDPS_RelativeHumidity_IsbL-0600_RLatLon0.09_PT038H.grib2 2026-04-28 14:50 857K
20260428T12Z_MSC_RDPS_RelativeHumidity_IsbL-0650_RLatLon0.09_PT038H.grib2 2026-04-28 14:50 868K
20260428T12Z_MSC_RDPS_RelativeHumidity_IsbL-0700_RLatLon0.09_PT038H.grib2 2026-04-28 14:50 886K
20260428T12Z_MSC_RDPS_RelativeHumidity_IsbL-0750_RLatLon0.09_PT038H.grib2 2026-04-28 14:50 924K
20260428T12Z_MSC_RDPS_RelativeHumidity_IsbL-0800_RLatLon0.09_PT038H.grib2 2026-04-28 14:50 1.0M
20260428T12Z_MSC_RDPS_RelativeHumidity_IsbL-0850_RLatLon0.09_PT038H.grib2 2026-04-28 14:50 1.0M
20260428T12Z_MSC_RDPS_RelativeHumidity_IsbL-0875_RLatLon0.09_PT038H.grib2 2026-04-28 14:50 1.0M
20260428T12Z_MSC_RDPS_RelativeHumidity_IsbL-0900_RLatLon0.09_PT038H.grib2 2026-04-28 14:50 1.0M
20260428T12Z_MSC_RDPS_RelativeHumidity_IsbL-0925_RLatLon0.09_PT038H.grib2 2026-04-28 14:50 1.0M
20260428T12Z_MSC_RDPS_RelativeHumidity_IsbL-0950_RLatLon0.09_PT038H.grib2 2026-04-28 14:50 1.0M
20260428T12Z_MSC_RDPS_RelativeHumidity_IsbL-0970_RLatLon0.09_PT038H.grib2 2026-04-28 14:50 1.0M
20260428T12Z_MSC_RDPS_RelativeHumidity_IsbL-0985_RLatLon0.09_PT038H.grib2 2026-04-28 14:50 1.0M
20260428T12Z_MSC_RDPS_RelativeHumidity_IsbL-1000_RLatLon0.09_PT038H.grib2 2026-04-28 14:50 1.0M
20260428T12Z_MSC_RDPS_RelativeHumidity_IsbL-1015_RLatLon0.09_PT038H.grib2 2026-04-28 14:50 1.0M
20260428T12Z_MSC_RDPS_Runoff-Accum_Sfc_RLatLon0.09_PT038H.grib2 2026-04-28 14:50 63K
20260428T12Z_MSC_RDPS_SWEATIndex_Sfc_RLatLon0.09_PT038H.grib2 2026-04-28 14:50 2.4M
20260428T12Z_MSC_RDPS_SeeingIndex_EAtm_RLatLon0.09_PT038H.grib2 2026-04-28 14:50 1.0M
20260428T12Z_MSC_RDPS_SensibleHeatNetFlux_Sfc_RLatLon0.09_PT038H.grib2 2026-04-28 14:50 286K
20260428T12Z_MSC_RDPS_ShowalterIndex_IsbL-0500_RLatLon0.09_PT038H.grib2 2026-04-28 14:50 2.6M
20260428T12Z_MSC_RDPS_SkyTransparencyIndex_EAtm_RLatLon0.09_PT038H.grib2 2026-04-28 14:50 669K
20260428T12Z_MSC_RDPS_Snow-Accum1h_Sfc_RLatLon0.09_PT038H.grib2 2026-04-28 14:50 465K
20260428T12Z_MSC_RDPS_Snow-Accum_Sfc_RLatLon0.09_PT038H.grib2 2026-04-28 14:50 764K
20260428T12Z_MSC_RDPS_SnowDensity_Sfc_RLatLon0.09_PT038H.grib2 2026-04-28 14:50 180K
20260428T12Z_MSC_RDPS_SnowDepth_Sfc_RLatLon0.09_PT038H.grib2 2026-04-28 14:50 686K
20260428T12Z_MSC_RDPS_SoilTemp_DBS-0to10cm_RLatLon0.09_PT038H.grib2 2026-04-28 14:50 236K
20260428T12Z_MSC_RDPS_SoilTemp_Sfc_RLatLon0.09_PT038H.grib2 2026-04-28 14:50 273K
20260428T12Z_MSC_RDPS_SoilVolumetricIceContent_Sfc_RLatLon0.09_PT038H.grib2 2026-04-28 14:50 164K
20260428T12Z_MSC_RDPS_SoilVolumetricWaterContent_DBS-0to10cm_RLatLon0.09_PT038H.grib2 2026-04-28 14:50 266K
20260428T12Z_MSC_RDPS_SoilVolumetricWaterContent_DBS-0to1cm_RLatLon0.09_PT038H.grib2 2026-04-28 14:50 336K
20260428T12Z_MSC_RDPS_SpecificHumidity_AGL-120m_RLatLon0.09_PT038H.grib2 2026-04-28 14:50 475K
20260428T12Z_MSC_RDPS_SpecificHumidity_AGL-2m_RLatLon0.09_PT038H.grib2 2026-04-28 14:50 641K
20260428T12Z_MSC_RDPS_SpecificHumidity_AGL-40m_RLatLon0.09_PT038H.grib2 2026-04-28 14:50 481K
20260428T12Z_MSC_RDPS_SpecificHumidity_AGL-80m_RLatLon0.09_PT038H.grib2 2026-04-28 14:50 476K
20260428T12Z_MSC_RDPS_SpecificHumidity_IsbL-0001_RLatLon0.09_PT038H.grib2 2026-04-28 14:50 347K
20260428T12Z_MSC_RDPS_SpecificHumidity_IsbL-0005_RLatLon0.09_PT038H.grib2 2026-04-28 14:50 360K
20260428T12Z_MSC_RDPS_SpecificHumidity_IsbL-0010_RLatLon0.09_PT038H.grib2 2026-04-28 14:50 396K
20260428T12Z_MSC_RDPS_SpecificHumidity_IsbL-0020_RLatLon0.09_PT038H.grib2 2026-04-28 14:50 386K
20260428T12Z_MSC_RDPS_SpecificHumidity_IsbL-0030_RLatLon0.09_PT038H.grib2 2026-04-28 14:50 371K
20260428T12Z_MSC_RDPS_SpecificHumidity_IsbL-0050_RLatLon0.09_PT038H.grib2 2026-04-28 14:50 458K
20260428T12Z_MSC_RDPS_SpecificHumidity_IsbL-0100_RLatLon0.09_PT038H.grib2 2026-04-28 14:50 385K
20260428T12Z_MSC_RDPS_SpecificHumidity_IsbL-0150_RLatLon0.09_PT038H.grib2 2026-04-28 14:50 359K
20260428T12Z_MSC_RDPS_SpecificHumidity_IsbL-0175_RLatLon0.09_PT038H.grib2 2026-04-28 14:50 450K
20260428T12Z_MSC_RDPS_SpecificHumidity_IsbL-0200_RLatLon0.09_PT038H.grib2 2026-04-28 14:50 464K
20260428T12Z_MSC_RDPS_SpecificHumidity_IsbL-0225_RLatLon0.09_PT038H.grib2 2026-04-28 14:50 469K
20260428T12Z_MSC_RDPS_SpecificHumidity_IsbL-0250_RLatLon0.09_PT038H.grib2 2026-04-28 14:50 576K
20260428T12Z_MSC_RDPS_SpecificHumidity_IsbL-0275_RLatLon0.09_PT038H.grib2 2026-04-28 14:50 489K
20260428T12Z_MSC_RDPS_SpecificHumidity_IsbL-0300_RLatLon0.09_PT038H.grib2 2026-04-28 14:50 464K
20260428T12Z_MSC_RDPS_SpecificHumidity_IsbL-0350_RLatLon0.09_PT038H.grib2 2026-04-28 14:50 555K
20260428T12Z_MSC_RDPS_SpecificHumidity_IsbL-0400_RLatLon0.09_PT038H.grib2 2026-04-28 14:50 530K
20260428T12Z_MSC_RDPS_SpecificHumidity_IsbL-0450_RLatLon0.09_PT038H.grib2 2026-04-28 14:50 581K
20260428T12Z_MSC_RDPS_SpecificHumidity_IsbL-0500_RLatLon0.09_PT038H.grib2 2026-04-28 14:50 520K
20260428T12Z_MSC_RDPS_SpecificHumidity_IsbL-0550_RLatLon0.09_PT038H.grib2 2026-04-28 14:50 595K
20260428T12Z_MSC_RDPS_SpecificHumidity_IsbL-0600_RLatLon0.09_PT038H.grib2 2026-04-28 14:50 651K
20260428T12Z_MSC_RDPS_SpecificHumidity_IsbL-0650_RLatLon0.09_PT038H.grib2 2026-04-28 14:50 568K
20260428T12Z_MSC_RDPS_SpecificHumidity_IsbL-0700_RLatLon0.09_PT038H.grib2 2026-04-28 14:50 607K
20260428T12Z_MSC_RDPS_SpecificHumidity_IsbL-0750_RLatLon0.09_PT038H.grib2 2026-04-28 14:50 669K
20260428T12Z_MSC_RDPS_SpecificHumidity_IsbL-0800_RLatLon0.09_PT038H.grib2 2026-04-28 14:50 725K
20260428T12Z_MSC_RDPS_SpecificHumidity_IsbL-0850_RLatLon0.09_PT038H.grib2 2026-04-28 14:50 791K
20260428T12Z_MSC_RDPS_SpecificHumidity_IsbL-0875_RLatLon0.09_PT038H.grib2 2026-04-28 14:50 817K
20260428T12Z_MSC_RDPS_SpecificHumidity_IsbL-0900_RLatLon0.09_PT038H.grib2 2026-04-28 14:50 832K
20260428T12Z_MSC_RDPS_SpecificHumidity_IsbL-0925_RLatLon0.09_PT038H.grib2 2026-04-28 14:50 695K
20260428T12Z_MSC_RDPS_SpecificHumidity_IsbL-0950_RLatLon0.09_PT038H.grib2 2026-04-28 14:50 695K
20260428T12Z_MSC_RDPS_SpecificHumidity_IsbL-0970_RLatLon0.09_PT038H.grib2 2026-04-28 14:50 682K
20260428T12Z_MSC_RDPS_SpecificHumidity_IsbL-0985_RLatLon0.09_PT038H.grib2 2026-04-28 14:50 670K
20260428T12Z_MSC_RDPS_SpecificHumidity_IsbL-1000_RLatLon0.09_PT038H.grib2 2026-04-28 14:50 661K
20260428T12Z_MSC_RDPS_SpecificHumidity_IsbL-1015_RLatLon0.09_PT038H.grib2 2026-04-28 14:50 650K
20260428T12Z_MSC_RDPS_SpecificHumidity_Sfc_RLatLon0.09_PT038H.grib2 2026-04-28 14:50 314K
20260428T12Z_MSC_RDPS_StormRelativeHelicity_EtaL-10000_RLatLon0.09_PT038H.grib2 2026-04-28 14:50 1.1M
20260428T12Z_MSC_RDPS_StormSeverityIndex_EtaL-10000_RLatLon0.09_PT038H.grib2 2026-04-28 14:50 1.1M
20260428T12Z_MSC_RDPS_Thickness_IsbL-0850to0700_RLatLon0.09_PT038H.grib2 2026-04-28 14:50 177K
20260428T12Z_MSC_RDPS_Thickness_IsbL-1000to0500_RLatLon0.09_PT038H.grib2 2026-04-28 14:50 200K
20260428T12Z_MSC_RDPS_Thickness_IsbL-1000to0850_RLatLon0.09_PT038H.grib2 2026-04-28 14:50 182K
20260428T12Z_MSC_RDPS_TotalCloudCover_Sfc_RLatLon0.09_PT038H.grib2 2026-04-28 14:50 639K
20260428T12Z_MSC_RDPS_TotalTotalsIndex_Sfc_RLatLon0.09_PT038H.grib2 2026-04-28 14:50 2.4M
20260428T12Z_MSC_RDPS_UVIndex-ClearSky_Sfc_RLatLon0.09_PT038H.grib2 2026-04-28 14:50 116K
20260428T12Z_MSC_RDPS_UVIndex_Sfc_RLatLon0.09_PT038H.grib2 2026-04-28 14:50 247K
20260428T12Z_MSC_RDPS_UpwardLongwaveRadiationFlux_NTAtm_RLatLon0.09_PT038H.grib2 2026-04-28 14:50 499K
20260428T12Z_MSC_RDPS_UpwardShortwaveRadiationFlux_NTAtm_RLatLon0.09_PT038H.grib2 2026-04-28 14:50 236K
20260428T12Z_MSC_RDPS_VerticalVelocity_IsbL-0250_RLatLon0.09_PT038H.grib2 2026-04-28 14:50 564K
20260428T12Z_MSC_RDPS_VerticalVelocity_IsbL-0500_RLatLon0.09_PT038H.grib2 2026-04-28 14:50 548K
20260428T12Z_MSC_RDPS_VerticalVelocity_IsbL-0700_RLatLon0.09_PT038H.grib2 2026-04-28 14:50 594K
20260428T12Z_MSC_RDPS_VerticalVelocity_IsbL-0850_RLatLon0.09_PT038H.grib2 2026-04-28 14:50 681K
20260428T12Z_MSC_RDPS_VerticalWindShear_EtaL-6500_RLatLon0.09_PT038H.grib2 2026-04-28 14:50 1.2M
20260428T12Z_MSC_RDPS_WindChill_Sfc_RLatLon0.09_PT038H.grib2 2026-04-28 14:50 1.1M
20260428T12Z_MSC_RDPS_WindDir_AGL-10m_RLatLon0.09_PT038H.grib2 2026-04-28 14:50 951K
20260428T12Z_MSC_RDPS_WindDir_AGL-120m_RLatLon0.09_PT038H.grib2 2026-04-28 14:50 596K
20260428T12Z_MSC_RDPS_WindDir_AGL-40m_RLatLon0.09_PT038H.grib2 2026-04-28 14:50 623K
20260428T12Z_MSC_RDPS_WindDir_AGL-80m_RLatLon0.09_PT038H.grib2 2026-04-28 14:50 607K
20260428T12Z_MSC_RDPS_WindDir_IsbL-0001_RLatLon0.09_PT038H.grib2 2026-04-28 14:50 311K
20260428T12Z_MSC_RDPS_WindDir_IsbL-0005_RLatLon0.09_PT038H.grib2 2026-04-28 14:50 358K
20260428T12Z_MSC_RDPS_WindDir_IsbL-0010_RLatLon0.09_PT038H.grib2 2026-04-28 14:50 396K
20260428T12Z_MSC_RDPS_WindDir_IsbL-0020_RLatLon0.09_PT038H.grib2 2026-04-28 14:50 410K
20260428T12Z_MSC_RDPS_WindDir_IsbL-0030_RLatLon0.09_PT038H.grib2 2026-04-28 14:50 424K
20260428T12Z_MSC_RDPS_WindDir_IsbL-0050_RLatLon0.09_PT038H.grib2 2026-04-28 14:50 430K
20260428T12Z_MSC_RDPS_WindDir_IsbL-0100_RLatLon0.09_PT038H.grib2 2026-04-28 14:50 436K
20260428T12Z_MSC_RDPS_WindDir_IsbL-0150_RLatLon0.09_PT038H.grib2 2026-04-28 14:50 428K
20260428T12Z_MSC_RDPS_WindDir_IsbL-0175_RLatLon0.09_PT038H.grib2 2026-04-28 14:50 446K
20260428T12Z_MSC_RDPS_WindDir_IsbL-0200_RLatLon0.09_PT038H.grib2 2026-04-28 14:50 457K
20260428T12Z_MSC_RDPS_WindDir_IsbL-0225_RLatLon0.09_PT038H.grib2 2026-04-28 14:50 464K
20260428T12Z_MSC_RDPS_WindDir_IsbL-0250_RLatLon0.09_PT038H.grib2 2026-04-28 14:50 468K
20260428T12Z_MSC_RDPS_WindDir_IsbL-0275_RLatLon0.09_PT038H.grib2 2026-04-28 14:50 488K
20260428T12Z_MSC_RDPS_WindDir_IsbL-0300_RLatLon0.09_PT038H.grib2 2026-04-28 14:50 486K
20260428T12Z_MSC_RDPS_WindDir_IsbL-0350_RLatLon0.09_PT038H.grib2 2026-04-28 14:50 506K
20260428T12Z_MSC_RDPS_WindDir_IsbL-0400_RLatLon0.09_PT038H.grib2 2026-04-28 14:50 523K
20260428T12Z_MSC_RDPS_WindDir_IsbL-0450_RLatLon0.09_PT038H.grib2 2026-04-28 14:50 536K
20260428T12Z_MSC_RDPS_WindDir_IsbL-0500_RLatLon0.09_PT038H.grib2 2026-04-28 14:50 556K
20260428T12Z_MSC_RDPS_WindDir_IsbL-0550_RLatLon0.09_PT038H.grib2 2026-04-28 14:50 574K
20260428T12Z_MSC_RDPS_WindDir_IsbL-0600_RLatLon0.09_PT038H.grib2 2026-04-28 14:50 604K
20260428T12Z_MSC_RDPS_WindDir_IsbL-0650_RLatLon0.09_PT038H.grib2 2026-04-28 14:50 645K
20260428T12Z_MSC_RDPS_WindDir_IsbL-0700_RLatLon0.09_PT038H.grib2 2026-04-28 14:50 687K
20260428T12Z_MSC_RDPS_WindDir_IsbL-0750_RLatLon0.09_PT038H.grib2 2026-04-28 14:50 733K
20260428T12Z_MSC_RDPS_WindDir_IsbL-0800_RLatLon0.09_PT038H.grib2 2026-04-28 14:50 791K
20260428T12Z_MSC_RDPS_WindDir_IsbL-0850_RLatLon0.09_PT038H.grib2 2026-04-28 14:50 854K
20260428T12Z_MSC_RDPS_WindDir_IsbL-0875_RLatLon0.09_PT038H.grib2 2026-04-28 14:50 877K
20260428T12Z_MSC_RDPS_WindDir_IsbL-0900_RLatLon0.09_PT038H.grib2 2026-04-28 14:50 892K
20260428T12Z_MSC_RDPS_WindDir_IsbL-0925_RLatLon0.09_PT038H.grib2 2026-04-28 14:50 903K
20260428T12Z_MSC_RDPS_WindDir_IsbL-0950_RLatLon0.09_PT038H.grib2 2026-04-28 14:50 901K
20260428T12Z_MSC_RDPS_WindDir_IsbL-0970_RLatLon0.09_PT038H.grib2 2026-04-28 14:50 909K
20260428T12Z_MSC_RDPS_WindDir_IsbL-0985_RLatLon0.09_PT038H.grib2 2026-04-28 14:50 916K
20260428T12Z_MSC_RDPS_WindDir_IsbL-1000_RLatLon0.09_PT038H.grib2 2026-04-28 14:50 928K
20260428T12Z_MSC_RDPS_WindDir_IsbL-1015_RLatLon0.09_PT038H.grib2 2026-04-28 14:50 945K
20260428T12Z_MSC_RDPS_WindGust-Max_AGL-10m_RLatLon0.09_PT038H.grib2 2026-04-28 14:50 1.0M
20260428T12Z_MSC_RDPS_WindGust-Min_AGL-10m_RLatLon0.09_PT038H.grib2 2026-04-28 14:50 957K
20260428T12Z_MSC_RDPS_WindGust_AGL-10m_RLatLon0.09_PT038H.grib2 2026-04-28 14:50 1.0M
20260428T12Z_MSC_RDPS_WindSpeed_AGL-10m_RLatLon0.09_PT038H.grib2 2026-04-28 14:50 822K
20260428T12Z_MSC_RDPS_WindSpeed_AGL-120m_RLatLon0.09_PT038H.grib2 2026-04-28 14:50 526K
20260428T12Z_MSC_RDPS_WindSpeed_AGL-40m_RLatLon0.09_PT038H.grib2 2026-04-28 14:50 529K
20260428T12Z_MSC_RDPS_WindSpeed_AGL-80m_RLatLon0.09_PT038H.grib2 2026-04-28 14:50 527K
20260428T12Z_MSC_RDPS_WindSpeed_IsbL-0001_RLatLon0.09_PT038H.grib2 2026-04-28 14:50 251K
20260428T12Z_MSC_RDPS_WindSpeed_IsbL-0005_RLatLon0.09_PT038H.grib2 2026-04-28 14:50 387K
20260428T12Z_MSC_RDPS_WindSpeed_IsbL-0010_RLatLon0.09_PT038H.grib2 2026-04-28 14:50 404K
20260428T12Z_MSC_RDPS_WindSpeed_IsbL-0020_RLatLon0.09_PT038H.grib2 2026-04-28 14:50 326K
20260428T12Z_MSC_RDPS_WindSpeed_IsbL-0030_RLatLon0.09_PT038H.grib2 2026-04-28 14:50 326K
20260428T12Z_MSC_RDPS_WindSpeed_IsbL-0050_RLatLon0.09_PT038H.grib2 2026-04-28 14:50 457K
20260428T12Z_MSC_RDPS_WindSpeed_IsbL-0100_RLatLon0.09_PT038H.grib2 2026-04-28 14:50 449K
20260428T12Z_MSC_RDPS_WindSpeed_IsbL-0150_RLatLon0.09_PT038H.grib2 2026-04-28 14:50 393K
20260428T12Z_MSC_RDPS_WindSpeed_IsbL-0175_RLatLon0.09_PT038H.grib2 2026-04-28 14:50 440K
20260428T12Z_MSC_RDPS_WindSpeed_IsbL-0200_RLatLon0.09_PT038H.grib2 2026-04-28 14:50 458K
20260428T12Z_MSC_RDPS_WindSpeed_IsbL-0225_RLatLon0.09_PT038H.grib2 2026-04-28 14:50 464K
20260428T12Z_MSC_RDPS_WindSpeed_IsbL-0250_RLatLon0.09_PT038H.grib2 2026-04-28 14:50 467K
20260428T12Z_MSC_RDPS_WindSpeed_IsbL-0275_RLatLon0.09_PT038H.grib2 2026-04-28 14:50 486K
20260428T12Z_MSC_RDPS_WindSpeed_IsbL-0300_RLatLon0.09_PT038H.grib2 2026-04-28 14:50 482K
20260428T12Z_MSC_RDPS_WindSpeed_IsbL-0350_RLatLon0.09_PT038H.grib2 2026-04-28 14:50 493K
20260428T12Z_MSC_RDPS_WindSpeed_IsbL-0400_RLatLon0.09_PT038H.grib2 2026-04-28 14:50 491K
20260428T12Z_MSC_RDPS_WindSpeed_IsbL-0450_RLatLon0.09_PT038H.grib2 2026-04-28 14:50 474K
20260428T12Z_MSC_RDPS_WindSpeed_IsbL-0500_RLatLon0.09_PT038H.grib2 2026-04-28 14:50 594K
20260428T12Z_MSC_RDPS_WindSpeed_IsbL-0550_RLatLon0.09_PT038H.grib2 2026-04-28 14:50 592K
20260428T12Z_MSC_RDPS_WindSpeed_IsbL-0600_RLatLon0.09_PT038H.grib2 2026-04-28 14:50 600K
20260428T12Z_MSC_RDPS_WindSpeed_IsbL-0650_RLatLon0.09_PT038H.grib2 2026-04-28 14:50 663K
20260428T12Z_MSC_RDPS_WindSpeed_IsbL-0700_RLatLon0.09_PT038H.grib2 2026-04-28 14:50 685K
20260428T12Z_MSC_RDPS_WindSpeed_IsbL-0750_RLatLon0.09_PT038H.grib2 2026-04-28 14:50 712K
20260428T12Z_MSC_RDPS_WindSpeed_IsbL-0800_RLatLon0.09_PT038H.grib2 2026-04-28 14:50 751K
20260428T12Z_MSC_RDPS_WindSpeed_IsbL-0850_RLatLon0.09_PT038H.grib2 2026-04-28 14:50 795K
20260428T12Z_MSC_RDPS_WindSpeed_IsbL-0875_RLatLon0.09_PT038H.grib2 2026-04-28 14:50 822K
20260428T12Z_MSC_RDPS_WindSpeed_IsbL-0900_RLatLon0.09_PT038H.grib2 2026-04-28 14:50 837K
20260428T12Z_MSC_RDPS_WindSpeed_IsbL-0925_RLatLon0.09_PT038H.grib2 2026-04-28 14:50 849K
20260428T12Z_MSC_RDPS_WindSpeed_IsbL-0950_RLatLon0.09_PT038H.grib2 2026-04-28 14:50 844K
20260428T12Z_MSC_RDPS_WindSpeed_IsbL-0970_RLatLon0.09_PT038H.grib2 2026-04-28 14:50 847K
20260428T12Z_MSC_RDPS_WindSpeed_IsbL-0985_RLatLon0.09_PT038H.grib2 2026-04-28 14:50 842K
20260428T12Z_MSC_RDPS_WindSpeed_IsbL-1000_RLatLon0.09_PT038H.grib2 2026-04-28 14:50 834K
20260428T12Z_MSC_RDPS_WindSpeed_IsbL-1015_RLatLon0.09_PT038H.grib2 2026-04-28 14:50 824K
20260428T12Z_MSC_RDPS_WindU_AGL-10m_RLatLon0.09_PT038H.grib2 2026-04-28 14:50 422K
20260428T12Z_MSC_RDPS_WindU_AGL-120m_RLatLon0.09_PT038H.grib2 2026-04-28 14:50 410K
20260428T12Z_MSC_RDPS_WindU_AGL-40m_RLatLon0.09_PT038H.grib2 2026-04-28 14:50 526K
20260428T12Z_MSC_RDPS_WindU_AGL-80m_RLatLon0.09_PT038H.grib2 2026-04-28 14:50 526K
20260428T12Z_MSC_RDPS_WindU_IsbL-0001_RLatLon0.09_PT038H.grib2 2026-04-28 14:50 292K
20260428T12Z_MSC_RDPS_WindU_IsbL-0005_RLatLon0.09_PT038H.grib2 2026-04-28 14:50 289K
20260428T12Z_MSC_RDPS_WindU_IsbL-0010_RLatLon0.09_PT038H.grib2 2026-04-28 14:50 301K
20260428T12Z_MSC_RDPS_WindU_IsbL-0020_RLatLon0.09_PT038H.grib2 2026-04-28 14:50 355K
20260428T12Z_MSC_RDPS_WindU_IsbL-0030_RLatLon0.09_PT038H.grib2 2026-04-28 14:50 317K
20260428T12Z_MSC_RDPS_WindU_IsbL-0050_RLatLon0.09_PT038H.grib2 2026-04-28 14:50 344K
20260428T12Z_MSC_RDPS_WindU_IsbL-0100_RLatLon0.09_PT038H.grib2 2026-04-28 14:50 345K
20260428T12Z_MSC_RDPS_WindU_IsbL-0150_RLatLon0.09_PT038H.grib2 2026-04-28 14:50 406K
20260428T12Z_MSC_RDPS_WindU_IsbL-0175_RLatLon0.09_PT038H.grib2 2026-04-28 14:50 431K
20260428T12Z_MSC_RDPS_WindU_IsbL-0200_RLatLon0.09_PT038H.grib2 2026-04-28 14:50 449K
20260428T12Z_MSC_RDPS_WindU_IsbL-0225_RLatLon0.09_PT038H.grib2 2026-04-28 14:50 455K
20260428T12Z_MSC_RDPS_WindU_IsbL-0250_RLatLon0.09_PT038H.grib2 2026-04-28 14:50 354K
20260428T12Z_MSC_RDPS_WindU_IsbL-0275_RLatLon0.09_PT038H.grib2 2026-04-28 14:50 370K
20260428T12Z_MSC_RDPS_WindU_IsbL-0300_RLatLon0.09_PT038H.grib2 2026-04-28 14:50 365K
20260428T12Z_MSC_RDPS_WindU_IsbL-0350_RLatLon0.09_PT038H.grib2 2026-04-28 14:50 374K
20260428T12Z_MSC_RDPS_WindU_IsbL-0400_RLatLon0.09_PT038H.grib2 2026-04-28 14:50 478K
20260428T12Z_MSC_RDPS_WindU_IsbL-0450_RLatLon0.09_PT038H.grib2 2026-04-28 14:50 477K
20260428T12Z_MSC_RDPS_WindU_IsbL-0500_RLatLon0.09_PT038H.grib2 2026-04-28 14:50 461K
20260428T12Z_MSC_RDPS_WindU_IsbL-0550_RLatLon0.09_PT038H.grib2 2026-04-28 14:50 462K
20260428T12Z_MSC_RDPS_WindU_IsbL-0600_RLatLon0.09_PT038H.grib2 2026-04-28 14:50 469K
20260428T12Z_MSC_RDPS_WindU_IsbL-0650_RLatLon0.09_PT038H.grib2 2026-04-28 14:50 487K
20260428T12Z_MSC_RDPS_WindU_IsbL-0700_RLatLon0.09_PT038H.grib2 2026-04-28 14:50 508K
20260428T12Z_MSC_RDPS_WindU_IsbL-0750_RLatLon0.09_PT038H.grib2 2026-04-28 14:50 533K
20260428T12Z_MSC_RDPS_WindU_IsbL-0800_RLatLon0.09_PT038H.grib2 2026-04-28 14:50 567K
20260428T12Z_MSC_RDPS_WindU_IsbL-0850_RLatLon0.09_PT038H.grib2 2026-04-28 14:50 611K
20260428T12Z_MSC_RDPS_WindU_IsbL-0875_RLatLon0.09_PT038H.grib2 2026-04-28 14:50 628K
20260428T12Z_MSC_RDPS_WindU_IsbL-0900_RLatLon0.09_PT038H.grib2 2026-04-28 14:50 639K
20260428T12Z_MSC_RDPS_WindU_IsbL-0925_RLatLon0.09_PT038H.grib2 2026-04-28 14:50 647K
20260428T12Z_MSC_RDPS_WindU_IsbL-0950_RLatLon0.09_PT038H.grib2 2026-04-28 14:50 643K
20260428T12Z_MSC_RDPS_WindU_IsbL-0970_RLatLon0.09_PT038H.grib2 2026-04-28 14:50 643K
20260428T12Z_MSC_RDPS_WindU_IsbL-0985_RLatLon0.09_PT038H.grib2 2026-04-28 14:50 777K
20260428T12Z_MSC_RDPS_WindU_IsbL-1000_RLatLon0.09_PT038H.grib2 2026-04-28 14:50 770K
20260428T12Z_MSC_RDPS_WindU_IsbL-1015_RLatLon0.09_PT038H.grib2 2026-04-28 14:50 763K
20260428T12Z_MSC_RDPS_WindV_AGL-10m_RLatLon0.09_PT038H.grib2 2026-04-28 14:50 423K
20260428T12Z_MSC_RDPS_WindV_AGL-120m_RLatLon0.09_PT038H.grib2 2026-04-28 14:50 524K
20260428T12Z_MSC_RDPS_WindV_AGL-40m_RLatLon0.09_PT038H.grib2 2026-04-28 14:50 526K
20260428T12Z_MSC_RDPS_WindV_AGL-80m_RLatLon0.09_PT038H.grib2 2026-04-28 14:50 524K
20260428T12Z_MSC_RDPS_WindV_IsbL-0001_RLatLon0.09_PT038H.grib2 2026-04-28 14:50 244K
20260428T12Z_MSC_RDPS_WindV_IsbL-0005_RLatLon0.09_PT038H.grib2 2026-04-28 14:50 290K
20260428T12Z_MSC_RDPS_WindV_IsbL-0010_RLatLon0.09_PT038H.grib2 2026-04-28 14:50 303K
20260428T12Z_MSC_RDPS_WindV_IsbL-0020_RLatLon0.09_PT038H.grib2 2026-04-28 14:50 319K
20260428T12Z_MSC_RDPS_WindV_IsbL-0030_RLatLon0.09_PT038H.grib2 2026-04-28 14:50 358K
20260428T12Z_MSC_RDPS_WindV_IsbL-0050_RLatLon0.09_PT038H.grib2 2026-04-28 14:50 346K
20260428T12Z_MSC_RDPS_WindV_IsbL-0100_RLatLon0.09_PT038H.grib2 2026-04-28 14:50 339K
20260428T12Z_MSC_RDPS_WindV_IsbL-0150_RLatLon0.09_PT038H.grib2 2026-04-28 14:50 405K
20260428T12Z_MSC_RDPS_WindV_IsbL-0175_RLatLon0.09_PT038H.grib2 2026-04-28 14:50 430K
20260428T12Z_MSC_RDPS_WindV_IsbL-0200_RLatLon0.09_PT038H.grib2 2026-04-28 14:50 345K
20260428T12Z_MSC_RDPS_WindV_IsbL-0225_RLatLon0.09_PT038H.grib2 2026-04-28 14:50 350K
20260428T12Z_MSC_RDPS_WindV_IsbL-0250_RLatLon0.09_PT038H.grib2 2026-04-28 14:50 378K
20260428T12Z_MSC_RDPS_WindV_IsbL-0275_RLatLon0.09_PT038H.grib2 2026-04-28 14:50 391K
20260428T12Z_MSC_RDPS_WindV_IsbL-0300_RLatLon0.09_PT038H.grib2 2026-04-28 14:50 387K
20260428T12Z_MSC_RDPS_WindV_IsbL-0350_RLatLon0.09_PT038H.grib2 2026-04-28 14:50 372K
20260428T12Z_MSC_RDPS_WindV_IsbL-0400_RLatLon0.09_PT038H.grib2 2026-04-28 14:50 372K
20260428T12Z_MSC_RDPS_WindV_IsbL-0450_RLatLon0.09_PT038H.grib2 2026-04-28 14:50 476K
20260428T12Z_MSC_RDPS_WindV_IsbL-0500_RLatLon0.09_PT038H.grib2 2026-04-28 14:50 477K
20260428T12Z_MSC_RDPS_WindV_IsbL-0550_RLatLon0.09_PT038H.grib2 2026-04-28 14:50 477K
20260428T12Z_MSC_RDPS_WindV_IsbL-0600_RLatLon0.09_PT038H.grib2 2026-04-28 14:50 485K
20260428T12Z_MSC_RDPS_WindV_IsbL-0650_RLatLon0.09_PT038H.grib2 2026-04-28 14:50 486K
20260428T12Z_MSC_RDPS_WindV_IsbL-0700_RLatLon0.09_PT038H.grib2 2026-04-28 14:50 505K
20260428T12Z_MSC_RDPS_WindV_IsbL-0750_RLatLon0.09_PT038H.grib2 2026-04-28 14:50 528K
20260428T12Z_MSC_RDPS_WindV_IsbL-0800_RLatLon0.09_PT038H.grib2 2026-04-28 14:50 563K
20260428T12Z_MSC_RDPS_WindV_IsbL-0850_RLatLon0.09_PT038H.grib2 2026-04-28 14:50 740K
20260428T12Z_MSC_RDPS_WindV_IsbL-0875_RLatLon0.09_PT038H.grib2 2026-04-28 14:50 760K
20260428T12Z_MSC_RDPS_WindV_IsbL-0900_RLatLon0.09_PT038H.grib2 2026-04-28 14:50 775K
20260428T12Z_MSC_RDPS_WindV_IsbL-0925_RLatLon0.09_PT038H.grib2 2026-04-28 14:50 785K
20260428T12Z_MSC_RDPS_WindV_IsbL-0950_RLatLon0.09_PT038H.grib2 2026-04-28 14:50 781K
20260428T12Z_MSC_RDPS_WindV_IsbL-0970_RLatLon0.09_PT038H.grib2 2026-04-28 14:50 782K
20260428T12Z_MSC_RDPS_WindV_IsbL-0985_RLatLon0.09_PT038H.grib2 2026-04-28 14:50 777K
20260428T12Z_MSC_RDPS_WindV_IsbL-1000_RLatLon0.09_PT038H.grib2 2026-04-28 14:50 770K
20260428T12Z_MSC_RDPS_WindV_IsbL-1015_RLatLon0.09_PT038H.grib2 2026-04-28 14:50 809K